Regional Weather Roundup
Issued by NWS

Home | Current Version | Previous Version | Graphics & Text | Print | Product List | Glossary On
Versions: 1 2 3 4 5 6 7 8 9 10 11 12 13 14 15 16 17 18 19 20 21 22 23 24 25 26 27 28 29 30 31 32 33 34 35 36 37 38 39 40 41 42 43 44 45 46 47 48 49 50
000
ASUS43 KIND 220900
RWRIN

WEATHER ROUNDUP FOR INDIANA
NATIONAL WEATHER SERVICE INDIANAPOLIS IN
500 AM EDT SAT JUL 22 2017

NOTE: "FAIR" INDICATES FEW OR NO CLOUDS BELOW 12,000 FEET WITH NO
SIGNIFICANT WEATHER AND/OR OBSTRUCTIONS TO VISIBILITY.

* - STATION DOES NOT REPORT WEATHER SUCH AS PRECIPITATION OR FOG.

+ - STATION NOT QUALITY CONTROLLED BY THE NATIONAL WEATHER SERVICE.
    USE DATA WITH CAUTION...ESPECIALLY DEWPOINT AND RELATIVE
    HUMIDITY OBSERVATIONS.

INZ001>003-010>013-019-020-221000-
NORTHWEST INDIANA

CITY           SKY/WX    TMP DP  RH WIND       PRES   REMARKS
GARY /AIRPORT/ LGT RAIN  73  71  95 W6        29.85R
MICHIGAN CITY+ LGT RAIN  70  70 100 CALM      29.82F
MONTICELLO +   CLOUDY    71  69  95 S7        29.88R
RENSSELAER +   CLOUDY    72  68  88 SE7       29.83F

$$

LMZ046-743>745-221000-
SOUTHERN LAKE MICHIGAN

STATION/POSITION TIME  TEMP    WIND        PRES    WAVE
                       AIR SEA DIR/SP/G            HT
                 (UTC) (F)     (DEG/KT/KT) (MB)    (FT)
BURNS HARBOR     0840   74     150/  8/ 12 1009.8F
MICHIGAN CITY    0830   71     130/  6/  8   N/A
5NW MICH CITY    0850   72 74  140/ 12/ 16   N/A     1

$$

INZ004-005-014>016-021>024-221000-
NORTH CENTRAL INDIANA

CITY           SKY/WX    TMP DP  RH WIND       PRES   REMARKS
GOSHEN         LGT RAIN  72  69  90 S5        29.87S
PERU/GRISSOM   LGT RAIN  72  72 100 S8        29.87F
SOUTH BEND     LGT RAIN  71  71 100 SE8       29.84F FOG
WARSAW +       RAIN      70  70 100 CALM      29.88F

$$

INZ006>009-017-018-025>027-221000-
NORTHEAST INDIANA

CITY           SKY/WX    TMP DP  RH WIND       PRES   REMARKS
FORT WAYNE     TSTM      72  69  90 W9        29.89S
KENDALLVILLE + LGT RAIN  70  70 100 SW3       29.89F

$$

INZ028-029-035-036-043>045-051>053-221000-
WEST CENTRAL INDIANA

CITY           SKY/WX    TMP DP  RH WIND       PRES   REMARKS
GREENCASTLE +  CLOUDY    73  70  88 E6        29.89F
LAFAYETTE      MOCLDY    72  71  97 E8        29.85F
TERRE HAUTE    CLOUDY    80  75  84 SW6       29.86F

$$

INZ030>032-037>040-046>048-054>057-064-065-221000-
CENTRAL INDIANA

CITY           SKY/WX    TMP DP  RH WIND       PRES   REMARKS
FRANKFORT +    TSTM      74  73  94 CALM      29.90F
GREENWOOD *+   CLOUDY    78  68  71 N8G21     29.92R
INDIANAPOLIS   CLOUDY    75  69  81 N12       29.90S
-EAGLE CREEK   CLOUDY    75  68  78 N10       29.90S
KOKOMO +       LGT RAIN  72  71  97 S6        29.89F
MT COMFORT *+  CLOUDY    75  68  78 NW16G22   29.92R
SHELBYVILLE    CLOUDY    79  75  87 NW10G17   29.89S

$$

INZ033-034-041-042-049-050-058-059-221000-
EAST CENTRAL INDIANA

CITY           SKY/WX    TMP DP  RH WIND       PRES   REMARKS
MUNCIE         TSTM      74  70  87 W9        29.92F
RICHMOND +     CLOUDY    72  72 100 S8        29.91F FOG

$$

INZ060-061-067>069-081>083-085>088-221000-
SOUTHWEST INDIANA

CITY           SKY/WX    TMP DP  RH WIND       PRES   REMARKS
EVANSVILLE     CLEAR     79  75  87 SW7       29.91S
HUNTINGBURG *+ CLEAR     78  75  90 S7        29.92R

$$

INZ062-063-066-070>080-084-089>092-221000-
SOUTH CENTRAL AND SOUTHEAST INDIANA

CITY           SKY/WX    TMP DP  RH WIND       PRES   REMARKS
BLOOMINGTON    PTCLDY    80  73  79 SW7       29.89F
MADISON *+     CLEAR     77  73  88 SW3       29.93S
SEYMOUR +      CLOUDY    79  75  89 CALM      29.90R

$$





USA.gov is the U.S. government's official web portal to all federal, state and local government web resources and services.